This is the latest recevied weather packets stored in our database for station/object K8WEH. If no packets are shown the sender has not sent any weather packets the latest 10 day(s).
| Time | Temp. | Humidity | Pressure | Rain* | Wind** | Luminosity | Snow |
|---|---|---|---|---|---|---|---|
| 1778019610 | 18.89° C | 68% | 1010.1 hPa | 0 mm | - | - | - |
| 1778019310 | 19.44° C | 68% | 1010.1 hPa | 0 mm | - | - | - |
| 1778019009 | 19.44° C | 65% | 1010.1 hPa | 0 mm | - | - | - |
| 1778018709 | 19.44° C | 64% | 1010 hPa | 0 mm | - | - | - |
| 1778018409 | 20° C | 63% | 1009.9 hPa | 0 mm | - | - | - |
| 1778018109 | 20° C | 64% | 1009.7 hPa | 0 mm | - | - | - |
| 1778017808 | 20° C | 62% | 1009.6 hPa | 0 mm | - | - | - |
| 1778017508 | 20° C | 60% | 1009.6 hPa | 0 mm | - | - | - |
| 1778017209 | 20.56° C | 59% | 1009.6 hPa | 0 mm | - | - | - |
| 1778016908 | 20.56° C | 58% | 1009.3 hPa | 0 mm | - | - | - |
| 1778016618 | 20.56° C | 59% | 1009.4 hPa | 0 mm | - | - | - |
| 1778016309 | 20.56° C | 59% | 1009.3 hPa | 0 mm | - | - | - |
| 1778016009 | 20.56° C | 57% | 1009.3 hPa | 0 mm | - | - | - |
| 1778015707 | 21.11° C | 58% | 1009.3 hPa | 0 mm | - | - | - |
| 1778015407 | 21.11° C | 57% | 1009.3 hPa | 0 mm | - | - | - |
| 1778015107 | 21.11° C | 56% | 1009.3 hPa | 0 mm | - | - | - |
| 1778014806 | 21.11° C | 57% | 1009 hPa | 0 mm | - | - | - |
| 1778014509 | 21.11° C | 56% | 1009.1 hPa | 0 mm | - | - | - |
| 1778014208 | 21.11° C | 56% | 1009.2 hPa | 0 mm | - | - | - |
| 1778013906 | 21.11° C | 56% | 1009.2 hPa | 0 mm | - | - | - |
| 1778013609 | 21.11° C | 57% | 1009.1 hPa | 0 mm | - | - | - |
| 1778013305 | 21.11° C | 57% | 1009.2 hPa | 0 mm | - | - | - |
| 1778013004 | 21.11° C | 60% | 1009.4 hPa | 0 mm | - | - | - |
| 1778012704 | 21.11° C | 57% | 1009.4 hPa | 0 mm | - | - | - |
| 1778012404 | 21.11° C | 58% | 1009.4 hPa | 0 mm | - | - | - |
* Rain latest hour (hover to see other rain measurements)
** Current wind speed in m/s (hover to see current wind gust speed)